Terug naar catalogus

USA 486

ActiefMilitairVLEO
NORAD 62757·PAYLOAD·🇺🇸 United States

Gelanceerd Jan 21, 2025 vanaf Cape Canaveral Space Force Station

Loading…

Volgende Passages (komende 24 uur)

TLE

VersSource: Space-Track

Epoch: Sep 14, 2026, 11:39 UTC

1 62757U 25014Y   26257.48600317  .00197556  00000-0  10667-2 0  9995
2 62757  43.0015 287.9847 0001440 321.0894  38.9873 15.78780612 94874

Volg USA 486 in realtime met AllMySat

Download on the App Store